Theta_e
327 326 327 327 327 327 326 324 324 320 325 325 325 324 322 321 319 319 318 315 314 314 312 310 306 305 304 303 302 301 302 301 300 299 299 298 298 297 296 296 295 295 295
329 328 328 329 328 328 326 324 325 325 324 325 323 321 320 320 319 318 315 314 313 310 307 306 305 303 302 301 301 301 300 299 299 298 298 298 297 296 297 296 296 295 295
329 330 330 326 321 327 325 327 325 323 324 321 320 320 319 318 317 316 311 311 308 307 305 304 304 302 301 300 300 299 299 298 298 299 298 298 298 297 297 296 296 295 294
324 330 330 329 328 328 327 325 324 322 321 320 320 319 319 316 314 311 309 307 305 305 304 302 301 299 298 298 298 298 298 297 297 297 297 297 297 296 296 295 295 294 293
330 330 330 330 329 327 325 323 321 321 320 319 318 317 314 311 309 308 307 305 304 303 301 299 298 298 297 297 296 296 295 295 295 295 295 295 295 295 294 294 294 294 293
329 329 329 326 326 324 323 322 320 319 317 316 315 312 311 310 307 305 304 303 302 300 298 296 295 294 293 293 293 294 294 294 294 293 293 292 292 292 293 293 293 293 292
328 326 325 324 323 321 321 318 317 315 312 312 309 307 306 305 303 302 301 298 295 293 292 291 291 290 291 291 291 291 291 291 292 292 291 290 290 290 291 291 291 291 291
323 323 322 321 319 317 315 313 312 310 308 305 304 303 301 300 299 298 296 294 293 292 291 290 289 287 286 285 285 284 284 284 283 282 282 282 283 285 287 290 290 290 290
320 319 318 317 316 312 310 308 307 305 303 302 300 299 299 298 297 296 294 293 292 291 287 286 285 285 284 284 283 283 283 283 283 284 284 283 283 283 282 284 288 290 290
318 315 314 311 309 306 305 304 303 302 300 299 298 297 296 296 295 293 292 292 288 286 286 285 285 284 283 282 282 282 282 283 285 285 285 285 285 283 286 285 286 289 290
313 311 309 307 307 305 304 302 301 300 298 297 296 295 295 293 292 290 288 287 286 286 286 285 284 283 282 281 281 281 282 283 284 285 286 287 286 286 285 287 287 289 289
309 308 307 305 304 304 302 300 300 298 297 296 295 293 291 289 288 287 287 285 285 284 284 283 283 282 281 281 280 280 280 281 282 284 285 286 287 287 286 286 287 287 288
308 306 305 304 303 302 300 298 296 296 295 293 290 289 288 287 287 286 285 284 283 282 282 281 281 280 280 280 280 279 279 280 281 282 284 285 287 287 287 286 286 287 289
305 304 302 300 299 298 296 295 294 292 290 289 288 287 287 286 286 284 283 283 282 282 281 281 280 280 280 279 279 279 278 278 279 280 282 284 286 286 287 287 288 288 287
302 300 299 297 296 294 293 291 290 290 289 288 286 286 285 284 283 282 282 281 281 280 280 280 279 279 278 278 278 277 277 277 278 279 281 283 285 286 287 288 288 287 287
299 297 295 293 292 291 290 289 288 287 285 284 284 283 283 282 281 281 280 280 279 279 279 279 278 277 277 277 276 276 276 276 276 278 279 281 283 284 286 287 287 287 286
297 293 291 290 289 288 288 287 286 285 285 284 283 282 282 282 281 280 280 279 279 278 278 277 277 276 276 275 275 274 274 274 275 276 277 278 280 282 284 285 285 287 287
293 291 289 288 287 287 287 286 285 285 284 284 283 282 281 281 281 280 278 277 278 277 277 276 276 275 275 274 273 273 272 273 274 274 276 277 278 279 281 284 285 285 285
290 289 287 287 286 286 285 284 284 283 282 282 282 281 280 280 280 279 278 276 276 276 275 275 274 274 273 273 272 272 272 272 272 273 274 276 276 277 280 281 284 285 286
287 286 286 286 284 283 284 284 282 282 281 280 280 280 280 279 279 278 276 276 275 275 274 273 273 272 272 272 271 271 271 271 271 272 273 274 275 276 277 279 281 283 285
286 286 286 286 287 286 285 284 282 280 280 279 279 278 278 277 277 275 275 274 274 273 273 272 272 271 271 271 270 270 270 270 270 271 272 273 274 275 276 278 280 282 284
287 287 286 285 284 283 282 280 279 279 278 277 277 277 277 276 275 274 273 273 272 272 271 271 270 270 270 270 269 269 269 269 270 270 271 272 274 275 276 277 279 282 283
285 284 283 282 281 281 279 278 277 277 276 276 276 276 275 274 273 273 272 272 271 270 270 270 270 270 270 270 270 269 269 269 269 270 270 272 273 275 276 277 278 280 281
282 281 280 279 279 278 276 276 275 275 275 274 274 273 273 272 272 271 271 270 270 269 269 269 269 269 269 269 270 269 269 269 269 270 270 271 273 275 276 277 277 279 281
280 279 277 276 276 276 275 274 274 273 273 273 272 272 271 271 270 270 269 269 268 269 269 269 269 269 269 269 269 269 270 270 270 271 271 272 273 275 276 277 278 278 280
276 276 275 275 274 273 273 272 272 272 271 271 270 270 269 269 269 268 267 267 268 268 268 268 268 269 269 270 270 270 270 270 270 272 272 273 274 275 276 277 278 278 280
Wind_Speed
43 43 46 45 43 43 35 24 28 25 24 25 22 19 19 19 19 22 18 19 21 24 22 17 14 15 15 15 17 20 22 26 31 36 35 32 32 32 33 31 35 38 39
44 42 44 43 37 38 15 25 28 23 24 18 18 19 18 19 20 18 19 21 22 17 13 11 12 14 16 17 18 22 24 26 31 38 38 38 37 35 35 36 39 40 36
35 31 27 26 26 33 27 23 15 19 15 17 18 18 17 20 19 17 18 16 14 12 10 12 15 17 18 19 21 24 26 28 31 35 41 40 40 38 36 34 34 34 32
42 28 24 23 21 21 21 17 16 15 14 15 15 16 17 17 15 15 14 12 11 10 11 12 14 14 13 14 17 21 25 28 30 34 39 42 43 44 42 40 38 39 40
26 21 19 23 21 19 17 15 14 14 13 13 14 16 15 13 13 12 12 11 11 11 10 12 12 12 14 17 20 23 25 28 30 33 37 39 42 42 40 41 41 41 36
18 22 23 20 18 15 15 15 15 15 14 14 14 13 12 11 11 11 11 10 10 11 12 11 13 16 20 22 24 28 30 32 35 34 36 36 38 35 33 36 39 40 36
20 21 21 20 17 16 16 17 17 17 16 14 13 12 12 11 11 10 9 8 7 9 12 15 17 20 23 27 30 33 35 36 39 42 45 44 42 39 36 34 36 37 37
17 19 19 17 19 19 20 20 20 19 16 13 11 11 13 13 11 8 7 8 9 11 14 17 20 22 23 28 32 35 36 36 36 36 37 40 40 41 39 34 31 35 36
24 23 22 22 24 23 21 21 20 17 13 12 13 13 10 10 9 9 10 11 13 15 16 15 18 20 23 26 30 34 37 37 34 32 32 33 35 36 34 32 35 30 33
26 25 24 24 24 23 21 19 15 12 15 16 15 13 12 12 13 14 14 14 14 13 14 16 19 21 22 23 27 30 34 35 35 35 33 32 30 26 26 23 26 28 32
27 26 25 24 22 21 19 17 19 21 21 20 18 16 15 14 14 15 16 14 14 15 17 19 19 21 22 23 23 25 27 31 34 33 33 33 32 30 31 23 21 26 30
29 28 27 24 22 20 20 21 22 23 22 21 19 16 15 15 14 15 13 14 16 18 19 20 21 20 21 23 24 27 28 28 30 31 31 33 31 30 33 26 24 23 26
30 29 27 25 23 22 22 24 24 22 20 19 17 16 15 14 13 13 14 15 16 17 19 19 20 21 21 23 25 27 28 26 28 28 29 30 30 29 31 27 22 19 22
29 28 28 26 25 23 23 23 23 20 18 17 16 15 15 14 14 14 15 16 16 17 18 19 20 21 23 24 26 27 27 27 26 26 27 26 23 31 34 22 27 18 13
30 30 29 28 28 27 24 21 19 17 15 14 14 12 13 14 14 14 15 15 16 18 19 20 21 22 25 27 29 29 28 28 28 27 25 23 24 22 25 14 9 11 14
30 28 28 27 26 24 22 21 18 13 13 13 13 13 13 15 13 13 14 14 15 17 18 19 20 22 25 28 30 31 31 28 27 26 25 22 21 21 17 15 13 13 13
28 27 25 23 21 19 16 13 12 10 9 8 9 11 12 14 12 13 13 14 15 16 16 18 19 22 26 28 29 30 31 28 26 25 25 24 20 19 15 13 15 17 18
23 22 23 21 17 14 11 10 9 9 8 9 10 10 13 13 12 12 15 16 16 15 16 18 20 23 25 27 28 29 28 28 26 26 23 23 21 21 20 15 16 19 20
19 18 17 16 14 13 12 11 12 11 11 11 11 11 14 14 15 17 19 18 17 17 18 20 21 23 24 25 27 27 27 27 26 25 23 22 22 22 21 17 15 24 20
15 14 9 7 7 8 8 8 10 11 11 11 13 15 16 18 20 22 18 17 17 18 20 22 24 24 23 26 27 27 27 27 26 24 23 21 22 22 20 20 14 11 11
6 9 14 12 9 7 8 10 12 13 14 15 16 16 18 20 19 17 15 16 19 21 23 25 24 24 26 25 25 25 27 26 23 24 23 23 22 23 20 19 18 12 13
11 11 8 6 7 7 10 12 14 15 14 15 16 17 18 19 19 18 17 19 22 22 24 24 25 25 23 22 25 25 23 24 25 24 24 22 21 21 21 20 17 13 13
4 4 5 6 8 10 12 12 14 14 14 16 17 18 19 18 18 19 20 21 22 23 24 25 25 22 21 22 21 22 24 24 23 22 23 24 24 22 21 20 17 15 11
3 3 6 8 10 11 12 13 14 15 17 17 16 16 16 18 19 20 23 23 23 25 26 24 20 22 21 22 22 20 20 20 20 21 23 25 24 21 20 20 18 15 12
4 6 7 9 11 13 13 14 14 14 16 17 17 18 19 20 22 24 23 24 25 26 24 19 21 20 21 21 19 18 18 18 18 19 22 23 24 22 20 19 18 16 13
8 9 9 10 10 11 12 14 16 16 17 18 19 20 21 23 24 23 25 26 24 23 21 21 20 19 20 20 18 17 17 17 18 18 20 23 23 21 19 19 18 17 15
Wind_Direction
223 223 224 227 231 236 235 235 245 237 236 235 243 246 239 244 249 256 246 230 235 238 243 252 257 262 264 268 262 261 267 270 277 282 283 280 278 280 283 275 273 278 278
228 224 222 230 231 242 253 226 239 221 230 214 226 233 235 241 245 244 235 229 232 238 246 248 256 265 264 270 272 272 276 277 280 283 281 281 281 284 283 278 275 275 272
235 233 227 226 233 234 232 212 196 208 208 216 230 236 245 243 235 236 232 234 234 226 236 253 264 268 272 277 275 279 284 283 280 280 282 284 285 287 285 282 279 273 272
229 234 225 225 225 219 214 210 212 215 224 226 234 244 236 229 224 222 220 218 211 228 246 267 278 290 293 291 284 283 289 290 287 283 282 284 285 285 285 285 279 277 278
225 225 212 210 213 202 208 205 220 231 230 235 231 221 209 199 199 202 201 208 230 248 259 280 269 267 273 281 294 290 285 283 284 288 288 290 289 289 287 288 284 280 279
208 204 202 200 197 206 213 226 224 218 213 208 195 187 183 183 186 194 212 227 238 249 260 264 273 275 271 268 269 270 278 286 286 288 289 291 289 294 290 291 288 285 281
197 198 190 191 200 207 211 208 199 191 184 182 178 175 167 182 197 210 224 225 234 254 263 272 279 281 284 285 284 284 282 279 278 284 288 290 292 289 291 287 286 287 283
191 192 190 192 201 201 188 180 176 171 169 171 173 174 178 183 191 202 223 239 262 278 282 285 288 291 294 297 300 298 298 297 297 298 294 291 288 286 281 287 286 287 281
192 193 194 195 183 177 172 172 171 170 167 165 160 176 178 184 203 227 250 267 277 284 286 290 298 304 305 306 308 308 307 309 311 311 309 304 297 295 286 281 276 279 261
191 186 182 176 174 172 175 168 165 154 149 161 170 176 183 208 224 248 260 273 286 291 299 306 310 312 315 318 316 315 315 318 320 316 316 316 315 304 299 284 271 270 256
183 180 174 180 177 173 169 162 159 166 170 180 197 202 217 226 239 254 270 287 293 296 303 308 314 316 318 318 319 317 315 314 314 314 315 313 315 314 310 297 277 272 268
180 180 179 181 181 175 173 175 181 186 193 196 204 216 227 236 249 264 282 295 300 310 311 315 317 318 320 320 323 325 322 312 307 312 310 321 313 311 312 304 284 270 266
185 181 181 182 180 182 186 186 189 197 204 207 212 216 225 242 259 279 293 298 303 307 311 316 319 320 315 317 324 326 328 323 321 318 317 328 313 309 307 294 284 263 255
184 181 180 181 180 185 192 197 201 204 205 209 213 221 233 252 267 280 284 290 297 303 309 314 320 317 315 316 319 324 328 331 328 324 324 325 329 314 310 299 278 252 250
185 183 183 185 184 186 191 195 207 209 215 219 223 233 247 260 269 276 287 299 309 312 316 316 317 315 316 320 324 324 326 327 329 331 329 323 327 329 327 285 253 261 257
189 188 186 190 192 195 197 194 194 203 211 220 232 243 252 263 269 282 292 300 306 310 312 313 316 311 314 321 322 322 323 326 327 329 332 328 321 327 330 318 305 269 267
191 179 181 188 190 196 197 203 206 203 217 237 247 253 259 263 272 279 288 295 302 304 306 306 305 308 316 319 320 320 319 321 323 323 329 328 325 319 315 301 301 283 274
186 190 188 185 177 188 205 207 217 233 243 260 268 281 283 287 297 309 313 311 304 298 302 300 303 309 313 314 316 318 317 317 320 319 322 327 323 322 323 305 296 282 274
187 185 186 188 192 199 205 219 233 251 259 266 269 274 278 291 293 303 307 299 298 303 304 305 306 308 308 310 312 313 312 313 315 315 318 319 323 318 322 325 285 274 269
177 174 178 199 204 210 230 253 259 263 256 254 255 263 271 276 283 290 293 286 292 296 297 300 305 308 308 309 309 309 310 312 312 313 314 311 318 321 320 322 323 332 279
145 181 202 212 231 249 261 263 262 262 263 261 261 262 266 275 287 299 292 294 297 299 299 303 306 309 311 310 310 310 310 311 309 312 310 311 313 318 322 318 318 312 288
205 212 226 246 264 274 273 271 268 269 267 264 266 274 283 291 295 296 293 292 296 297 300 305 307 310 313 314 312 309 309 309 310 312 312 310 310 313 320 319 311 300 301
213 234 254 270 279 283 278 271 269 271 273 273 274 277 279 280 284 287 290 293 295 298 302 304 309 312 311 310 307 308 308 310 311 310 309 308 307 310 314 316 317 305 304
251 284 289 286 287 282 278 278 279 280 282 281 286 290 288 286 285 286 289 291 294 297 299 306 309 311 311 310 311 309 308 308 310 312 312 307 304 305 306 309 313 306 291
317 301 296 287 285 289 291 289 288 284 283 286 287 287 287 285 284 287 286 290 293 295 303 310 314 311 309 311 308 305 303 308 312 317 313 304 300 298 297 301 307 303 280
331 325 318 316 308 301 296 292 292 295 296 295 293 294 292 291 291 289 292 292 293 300 306 311 310 306 308 310 309 310 312 312 310 315 319 308 301 296 294 298 300 294 278